Regional Weather Roundup
Issued by NWS

Home | Current Version | Previous Version | Graphics & Text | Print | Product List | Glossary On
Versions: 1 2 3 4 5 6 7 8 9 10 11 12 13 14 15 16 17 18 19 20 21 22 23 24 25 26 27 28 29 30 31 32 33 34 35 36 37 38 39 40 41 42 43 44 45 46 47 48 49 50
000
ASUS43 KDMX 031508
RWRIA

WEATHER ROUNDUP FOR IOWA
NATIONAL WEATHER SERVICE DES MOINES IA
1000 AM CDT TUE MAY 03 2016

NOTE: "FAIR" INDICATES FEW OR NO CLOUDS BELOW 12,000 FEET WITH NO
SIGNIFICANT WEATHER AND/OR OBSTRUCTIONS TO VISIBILITY.

* - THESE STATIONS ARE NOT NWS STATIONS...THUS NOT UNDER NWS
QUALITY CONTROL.  THEY ALSO DO NOT REPORT WEATHER SUCH
AS PRECIPITATION OR FOG.

IAZ001>003-012>014-020>022-031>034-043>046-031600-
   NORTHWEST IOWA

CITY           SKY/WX    TMP DP  RH WIND       PRES   REMARKS
CARROLL *      SUNNY     61  45  55 W12       30.03F
CHEROKEE *     SUNNY     57  48  72 W7        30.02F
DENISON *      SUNNY     57  46  67 SW6       30.03S
LE MARS *      SUNNY     57  45  62 W8        30.04F
ORANGE CITY *  SUNNY     57  46  67 NW9       30.02S
SHELDON *      SUNNY     57  45  62 NW9       30.00F
SIOUX CITY     SUNNY     58  45  62 NW7       30.05S
SPENCER        SUNNY     59  41  51 W13       30.01F
STORM LAKE *   SUNNY     57  45  62 W12       30.03S
$$

IAZ055>058-069>071-079>083-090>094-031600-
   SOUTHWEST IOWA

CITY           SKY/WX    TMP DP  RH WIND       PRES   REMARKS
ATLANTIC *     SUNNY     59  45  58 VRB6      30.06S
AUDUBON *      SUNNY     59  45  58 W7        30.06S
CLARINDA *       N/A    N/A N/A N/A MISG        N/A
COUNCIL BLFS * SUNNY     59  43  55 NW8       30.07S
CRESTON *      SUNNY     59  46  63 W9        30.07F
HARLAN  *      SUNNY     59  43  55 W10       30.09S
LAMONI         SUNNY     60  48  64 W7        30.06S
SHENANDOAH *   SUNNY     59  50  72 W8        30.08F
$$

IAZ047>049-059>061-072>074-084-031600-
   CENTRAL IOWA

CITY           SKY/WX    TMP DP  RH WIND       PRES   REMARKS
AMES           SUNNY     60  45  57 NW7       30.02F
ANKENY *       SUNNY     61  46  59 W8        30.03F
BOONE *        SUNNY     59  45  58 W12       30.02F
CHARITON *     SUNNY     61  45  55 W8        30.05S
DES MOINES     MOSUNNY   61  44  53 W7        30.04F
GRINNELL*      SUNNY     59  45  58 W8        30.03F
KNOXVILLE *    SUNNY     61  45  55 W8        30.03F
MARSHALLTOWN   SUNNY     59  45  59 W10       30.01F
NEWTON *       SUNNY     59  48  67 W8        30.03S
$$

IAZ004>006-015-016-023>025-035-036-031600-
   NORTH CENTRAL IOWA

CITY           SKY/WX    TMP DP  RH WIND       PRES   REMARKS
ALGONA *       SUNNY     59  45  58 W10       30.01F
CLARION *      SUNNY     59  45  58 W8        30.01F
ESTHERVILLE    SUNNY     59  42  53 W15       29.99F
FORT DODGE *   SUNNY     59  45  58 W9        30.03S
MASON CITY     SUNNY     60  45  57 W14       30.00F
FOREST CITY *  SUNNY     59  43  55 W13       29.99F
WEBSTER CITY * SUNNY     59  46  63 W12       30.00F
IOWA FALLS *     N/A     61  45  55 W12       30.02F
$$

IAZ007>011-017>019-026>030-037>042-050>054-066-031600-
   NORTHEAST IOWA

CITY           SKY/WX    TMP DP  RH WIND       PRES   REMARKS
CEDAR RAPIDS     N/A    N/A N/A N/A W14       30.01S
CHARLES CITY * SUNNY     61  46  59 W10       29.99F
CLINTON *      SUNNY     61  48  62 W13       30.00
DECORAH *      SUNNY     61  41  48 W10G16    29.96F
DUBUQUE        SUNNY     59  44  57 W16       29.99F
MONTICELLO *   SUNNY     61  46  59 W14       29.99F
OELWEIN *      SUNNY     59  45  58 W13       30.00S
WATERLOO       SUNNY     61  43  51 W10       29.99F
$$

IAZ064-065-067-068-078-031600-
   EAST CENTRAL IOWA

CITY           SKY/WX    TMP DP  RH WIND       PRES   REMARKS
DAVENPORT      SUNNY     58  48  69 W9        30.01F
IOWA CITY      SUNNY     61  45  55 W13       30.03S
MT. PLEASANT * SUNNY     61  48  63 W7        30.03F
MUSCATINE *    SUNNY     59  46  63 W10       30.03S
QUAD CITIES    SUNNY     60  44  55 W9G17     30.00F
$$

IAZ062-063-075>077-085>089-095>099-031600-
   SOUTHEAST IOWA

CITY           SKY/WX    TMP DP  RH WIND       PRES   REMARKS
BURLINGTON     SUNNY     59  46  62 W6        30.03S
FAIRFIELD *    SUNNY     57  46  67 W8        30.04S
FORT MADISON * SUNNY     57  45  62 NW7       30.04S
KEOKUK *       SUNNY     61  43  51 W7        30.04S
OSKALOOSA *      N/A     59  45  58 W9        30.04F
OTTUMWA        SUNNY     57  47  69 W9        30.04S
WASHINGTON *   SUNNY     59  50  72 W10       30.04S
$$

ABBREVIATIONS USED IN REMARKS
   TC - TEMPERATURES IN CELSIUS
  WCI - WIND CHILL INDEX
   HX - HEAT INDEX
  VSB - VISIBILITY
$$





USA.gov is the U.S. government's official web portal to all federal, state and local government web resources and services.